TimeAKDT,TemperatureF,Dew PointF,Humidity,Sea Level PressureIn,VisibilityMPH,Wind Direction,Wind SpeedMPH,Gust SpeedMPH,PrecipitationIn,Events,Conditions,WindDirDegrees,DateUTC
12:16 AM,19.4,15.8,86,29.76,10.0,Calm,Calm,-,N/A,,Overcast,0,2012-10-18 08:16:00
12:36 AM,19.4,15.8,86,29.76,10.0,Calm,Calm,-,N/A,,Overcast,0,2012-10-18 08:36:00
12:56 AM,19.4,15.8,86,29.76,10.0,East,3.5,-,N/A,,Overcast,100,2012-10-18 08:56:00
1:36 PM,24.8,19.4,80,29.92,10.0,Calm,Calm,-,N/A,,Scattered Clouds,0,2012-10-18 21:36:00
1:56 PM,23.0,19.4,86,29.93,10.0,Calm,Calm,-,N/A,,Scattered Clouds,0,2012-10-18 21:56:00
2:16 PM,23.0,19.4,86,29.93,10.0,Calm,Calm,-,N/A,,Scattered Clouds,0,2012-10-18 22:16:00
2:36 PM,24.8,21.2,86,29.93,10.0,East,4.6,-,N/A,,Mostly Cloudy,80,2012-10-18 22:36:00
2:56 PM,26.6,21.2,80,29.93,10.0,ENE,3.5,-,N/A,,Overcast,70,2012-10-18 22:56:00
3:16 PM,24.8,19.4,80,29.93,10.0,East,3.5,-,N/A,,Mostly Cloudy,90,2012-10-18 23:16:00
3:36 PM,26.6,21.2,80,29.93,10.0,Calm,Calm,-,N/A,,Clear,0,2012-10-18 23:36:00
3:56 PM,24.8,19.4,80,29.94,10.0,Calm,Calm,-,N/A,,Clear,0,2012-10-18 23:56:00
4:16 PM,26.6,19.4,74,29.94,10.0,Calm,Calm,-,N/A,,Clear,0,2012-10-19 00:16:00
4:36 PM,24.8,19.4,80,29.94,10.0,Calm,Calm,-,N/A,,Clear,0,2012-10-19 00:36:00
4:56 PM,24.8,19.4,80,29.94,10.0,Calm,Calm,-,N/A,,Mostly Cloudy,0,2012-10-19 00:56:00
5:36 PM,24.8,19.4,80,29.95,10.0,Calm,Calm,-,N/A,,Mostly Cloudy,0,2012-10-19 01:36:00
5:56 PM,24.8,19.4,80,29.95,10.0,Calm,Calm,-,N/A,,Overcast,0,2012-10-19 01:56:00
6:16 PM,24.8,19.4,80,29.95,10.0,Calm,Calm,-,N/A,,Overcast,0,2012-10-19 02:16:00
6:36 PM,23.0,19.4,86,29.95,10.0,Calm,Calm,-,N/A,,Overcast,0,2012-10-19 02:36:00
6:56 PM,21.2,17.6,86,29.96,10.0,Calm,Calm,-,N/A,,Mostly Cloudy,0,2012-10-19 02:56:00
7:16 PM,21.2,19.4,93,29.96,10.0,Calm,Calm,-,N/A,,Overcast,0,2012-10-19 03:16:00
7:36 PM,19.4,15.8,86,29.96,10.0,Calm,Calm,-,N/A,,Mostly Cloudy,0,2012-10-19 03:36:00
7:56 PM,19.4,17.6,93,29.97,10.0,Calm,Calm,-,N/A,,Mostly Cloudy,0,2012-10-19 03:56:00
8:16 PM,19.4,17.6,93,29.97,10.0,NE,3.5,-,N/A,,Scattered Clouds,40,2012-10-19 04:16:00
8:36 PM,19.4,15.8,86,29.98,10.0,NNE,5.8,-,N/A,,Overcast,30,2012-10-19 04:36:00
8:56 PM,19.4,15.8,86,29.99,10.0,NE,6.9,-,N/A,,Overcast,40,2012-10-19 04:56:00
9:16 PM,19.4,14.0,80,29.99,10.0,North,4.6,-,N/A,,Scattered Clouds,10,2012-10-19 05:16:00
9:36 PM,15.8,12.2,86,30.01,10.0,Calm,Calm,-,N/A,,Partly Cloudy,0,2012-10-19 05:36:00
9:56 PM,14.0,10.4,86,30.01,10.0,Calm,Calm,-,N/A,,Mostly Cloudy,0,2012-10-19 05:56:00
10:16 PM,15.8,12.2,86,30.01,10.0,North,5.8,-,N/A,,Mostly Cloudy,360,2012-10-19 06:16:00
10:36 PM,14.0,12.2,93,30.02,10.0,NNW,4.6,-,N/A,,Partly Cloudy,330,2012-10-19 06:36:00
10:56 PM,15.8,14.0,93,30.02,10.0,NW,4.6,-,N/A,,Clear,320,2012-10-19 06:56:00
11:16 PM,15.8,15.8,100,30.03,10.0,NNW,3.5,-,N/A,,Clear,330,2012-10-19 07:16:00
11:36 PM,17.6,17.6,100,30.03,10.0,Calm,Calm,-,N/A,,Clear,0,2012-10-19 07:36:00
11:56 PM,14.0,8.6,79,30.03,10.0,Calm,Calm,-,N/A,,Clear,0,2012-10-19 07:56:00